Glassport, PA (15045)

5:11 PM EST on February 08, 2016 (GMT -0500)
Jefferson Hills | | Change Station
CLOSE
Current Station
Personal Weather Station
Location: Clairton, PA
Elevation: 919 ft
Nearby Weather Stations
Active Advisory: Winter Weather Advisory

Elev 919 ft 40.29 °N, 79.91 °W | Updated 1 second ago

Overcast
Overcast
39.0 °F
Feels Like 39 °F
N
1.1
Wind Variable Wind from SW
Gusts 2.5 mph

Today
High -- | Low -- °F
--% Chance of Precip.
Yesterday
High -- | Low -- °F
Precip. -- in
Pressure 29.60 in
Visibility 10.0 miles
Clouds Mostly Cloudy 1400 ft
Overcast 2000 ft
Windchill 39 °F
Dew Point 25 °F
Humidity 57%
Rainfall 0.02 in
Snow Depth Not available.
7:21 AM 5:46 PM
New Moon, 0% visible
METAR KAGC 082153Z 18007KT 10SM BKN014 OVC020 04/01 A2957 RMK AO2 RAE36 SLP024 P0001 T00390011
Pressure 29.60 in
Visibility 10.0 miles
Clouds Mostly Cloudy 1400 ft
Overcast 2000 ft
Windchill 39 °F
Dew Point 25 °F
Humidity 57%
Rainfall 0.02 in
Snow Depth Not available.
7:21 AM 5:46 PM
New Moon, 0% visible
METAR KAGC 082153Z 18007KT 10SM BKN014 OVC020 04/01 A2957 RMK AO2 RAE36 SLP024 P0001 T00390011

10-Day Weather Forecast

Almanac

Astronomy

Feb. 08, 2016 Rise Set
Actual Time
Civil Twilight
Nautical Twilight
Astronomical Twilight
Moon
Length of Visible Light
Length of Day
Tomorrow will be .
, % of the Moon is Illuminated

Today's Extremes

State Highs State Lows

Community

WunderPhotos

Upload Photos

1,891,516 photos uploaded!

WunderBlog® & News

Nearby

Air Quality

  Air Quality AQ Index Pollutant
Not available.

Snow Depth

Station Depth Elevation

Earthquake Activity

City Distance Mag. Time & Date
Minimum magnitude displayed is 2.5.

Coastal Water Temperatures

Place Temperature

Stations

Nearby Weather Stations

Station Location Temp. Windchill Dew Point Humidity Wind Precip. Elev Updated Type
                   

Watches & Warnings

Winter Weather Advisory
Issued: 2:37 PM EST Feb. 8, 2016 – National Weather Service

... Winter Weather Advisory remains in effect from 7 PM this
evening to 7 am EST Wednesday...

* snow accumulation... 4 to 6 inches through Wednesday.

* Snow beginning... this evening.

* Period of most intense snow... later tonight into Tuesday.

* Snow ending... snow showers will gradually taper down through
Tuesday night.

* Impacts... hazardous travel conditions are expected due to snow.

Precautionary/preparedness actions...

A Winter Weather Advisory for snow means that periods of snow
will cause primarily travel difficulties. Be prepared for snow
covered roads and limited visibilities... and use caution while
driving.